Location: Unspecified
(54.1780°N, 0.0000°E)
Time: 09:13:13
(UTC+00:00)

Altair - Pass Details

Date: 18 June 2019
Orbit: 1501 x 1683 km, 47.2° (Epoch: 17 July)

Event Time Altitude Azimuth Distance (km) Brightness Sun altitude
Rises 02:43:10 0° 282° (WNW) 4,869 9.9 -4.9°
Reaches altitude 10° 02:46:35 10° 275° (W) 3,901 9.3 -4.6°
Maximum altitude 02:55:21 36° 214° (SSW) 2,432 8.1 -3.9°
Drops below altitude 10° 03:04:12 10° 152° (SSE) 3,940 9.4 -3.0°
Sets 03:07:42 0° 145° (SE) 4,921 10.0 -2.7°
